sat.trackr.live / text

‹ back to catalog

STARLINK-11238 [DTC]

NORAD 60928 · 2024-155E

PAYLOAD ACTIVE UNKNOWN

§ Identity

Operator
Country
US
Launch date
2024-08-31
Launch site
AFWTR
Launch vehicle
Mass (kg)
RCS (m²)

Purposes: comms

External: N2YO · Heavens-Above · Gunter

§ Orbital elements

Epoch: 2026-09-21T22:16:46.414272Z

Period
91.74 min
Inclination
53.1593°
Eccentricity
0.0001131
Mean motion
15.69705546 rev/d
Perigee alt
359.0 km
Apogee alt
360.5 km
Semi-major
6,737.9 km
B*
9.7117e-6
RAAN
93.8850°
Arg perigee
87.2608°
Mean anomaly
272.8539°
Rev number
11,927

§ Raw data

STARLINK-11238 [DTC]1 60928U 24155E   26264.92831498  .00000588  00000+0  97117-5 0  99962 60928  53.1593  93.8850 0001131  87.2608 272.8539 15.69705546119277

JSON: /api/v1/satellites/60928 · /tle

For live sub-satellite position, see the globe view (requires WebGL).

§ Visibility from observer

Set your observer location to see the next 7 days of passes ≥ 10°. The values pass through the URL so the page stays shareable.

No JS? Fill the form by hand. The geolocation button needs JavaScript.